This is the latest recevied weather packets stored in our database for station/object KD4EED. If no packets are shown the sender has not sent any weather packets the latest 10 day(s).
| Time | Temp. | Humidity | Pressure | Rain* | Wind** | Luminosity | Snow |
|---|---|---|---|---|---|---|---|
| 1788228905 | 22.22° C | 73% | 1010.2 hPa | - | - | 4 W/m² | - |
| 1788228601 | 22.22° C | 71% | 1010.2 hPa | - | - | 5 W/m² | - |
| 1788228296 | 22.78° C | 71% | 1010.2 hPa | - | - | 7 W/m² | - |
| 1788227995 | 22.78° C | 70% | 1010.2 hPa | - | - | 10 W/m² | - |
| 1788227692 | 23.33° C | 68% | 1010.1 hPa | - | - | 14 W/m² | - |
| 1788227391 | 23.33° C | 68% | 1010.2 hPa | - | - | 16 W/m² | - |
| 1788227087 | 23.89° C | 67% | 1010.3 hPa | - | - | 26 W/m² | - |
| 1788226782 | 23.89° C | 67% | 1010.1 hPa | - | - | 32 W/m² | - |
| 1788226479 | 24.44° C | 65% | 1009.9 hPa | - | - | 38 W/m² | - |
| 1788226174 | 24.44° C | 65% | 1010.1 hPa | - | - | 37 W/m² | - |
| 1788225874 | 25° C | 64% | 1010.1 hPa | - | - | 48 W/m² | - |
| 1788225569 | 25.56° C | 63% | 1010.1 hPa | - | - | 55 W/m² | - |
| 1788225265 | 25.56° C | 61% | 1010 hPa | - | - | 60 W/m² | - |
| 1788224963 | 26.11° C | 61% | 1010.2 hPa | - | - | 65 W/m² | - |
| 1788224658 | 26.67° C | 59% | 1010.1 hPa | - | - | 72 W/m² | - |
| 1788224357 | 27.22° C | 57% | 1010.2 hPa | - | - | 78 W/m² | - |
| 1788224052 | 27.22° C | 57% | 1010.3 hPa | - | - | 85 W/m² | - |
| 1788223748 | 27.78° C | 57% | 1010.2 hPa | - | - | 91 W/m² | - |
| 1788223446 | 27.78° C | 56% | 1010.2 hPa | - | - | 98 W/m² | - |
| 1788223142 | 27.78° C | 56% | 1010.2 hPa | - | - | 107 W/m² | - |
| 1788222837 | 27.78° C | 56% | 1010.2 hPa | - | - | 118 W/m² | - |
| 1788222535 | 27.78° C | 57% | 1010 hPa | - | - | 135 W/m² | - |
| 1788222234 | 27.78° C | 57% | 1010.1 hPa | - | - | 156 W/m² | - |
| 1788221929 | 27.22° C | 57% | 1010.3 hPa | - | - | 183 W/m² | - |
| 1788221625 | 27.22° C | 57% | 1010.3 hPa | - | - | 200 W/m² | - |
* Rain since midnight (hover to see other rain measurements)
** Current wind speed in m/s (hover to see current wind gust speed)